DW4127 Weather Reports


Display with metric or nautical units.
time (UTC)temp
F
wind
direction
speed
MPH
gust
MPH
rain 1hr
in
rain 24hr
in
rain mn
in
humidity
%
barometer
mb
20260506061608 62 338 4.0 10.0 0.00 0.00 0.00 75 1008.7
20260506060548 62 338 3.0 9.0 0.00 0.00 0.00 75 1008.5
20260506050548 64 23 5.0 11.0 0.00 0.00 0.00 74 1008.3
20260506044549 66 0 4.0 11.0 0.00 0.00 0.00 75 1008.2
20260506043549 66 0 4.0 10.0 0.00 0.00 0.00 74 1008.3
20260506042549 67 0 5.0 13.0 0.00 0.00 0.00 74 1008.1
20260506041549 67 0 4.0 9.0 0.00 0.00 0.00 74 1007.9
20260506040549 68 0 5.0 11.0 0.00 0.00 0.00 73 1007.7
20260506035549 69 0 8.0 14.0 0.00 0.00 0.00 73 1007.7
20260506034609 70 0 6.0 14.0 0.00 0.00 0.00 72 1007.5
20260506033549 70 0 3.0 8.0 0.00 0.00 0.00 73 1007.3
20260506032549 71 0 6.0 12.0 0.00 0.00 0.00 73 1007.4
20260506031547 71 0 5.0 14.0 0.00 0.00 0.00 72 1007.0
20260506030549 72 0 5.0 11.0 0.00 0.00 0.00 71 1007.1
20260506025549 72 0 6.0 11.0 0.00 0.00 0.00 71 1006.9
20260506024549 73 315 3.0 9.0 0.00 0.00 0.00 70 1006.5
20260506023549 74 0 6.0 13.0 0.00 0.00 0.00 69 1005.9
20260506022609 75 0 3.0 10.0 0.00 0.00 0.00 68 1005.8
20260506021549 75 0 4.0 7.0 0.00 0.00 0.00 68 1005.4
20260506020609 75 0 3.0 9.0 0.00 0.00 0.00 68 1005.3
20260506015549 75 0 4.0 9.0 0.00 0.00 0.00 67 1005.2
20260506014549 75 0 4.0 11.0 0.00 0.00 0.00 67 1005.5
20260506013549 76 23 4.0 10.0 0.00 0.00 0.00 67 1004.8
20260506012549 77 0 5.0 10.0 0.00 0.00 0.00 67 1004.8
20260506011549 78 0 4.0 10.0 0.00 0.00 0.00 66 1004.9
20260506010549 78 45 3.0 8.0 0.00 0.00 0.00 65 1004.5
20260506005549 79 0 2.0 6.0 0.00 0.00 0.00 64 1004.3
20260506004549 79 0 2.0 4.0 0.00 0.00 0.00 63 1004.4
20260506003549 80 45 3.0 9.0 0.00 0.00 0.00 63 1004.3
20260506002549 81 0 4.0 11.0 0.00 0.00 0.00 62 1004.3
20260506001549 82 0 4.0 8.0 0.00 0.00 0.00 61 1004.4
20260506000549 83 0 4.0 11.0 0.00 0.00 0.00 59 1004.1
20260505235709 85 23 4.0 11.0 0.00 0.00 0.00 57 1003.5
20260505234549 85 0 3.0 8.0 0.00 0.00 0.00 54 1003.7
20260505233549 85 248 3.0 7.0 0.00 0.00 0.00 68 1003.8
20260505232549 86 180 4.0 10.0 0.00 0.00 0.00 66 1003.1
20260505231549 87 180 3.0 9.0 0.00 0.00 0.00 66 1003.0
20260505230609 87 158 3.0 10.0 0.00 0.00 0.00 65 1003.0
20260505225549 87 180 3.0 5.0 0.00 0.00 0.00 65 1002.8
20260505224549 88 158 4.0 8.0 0.00 0.00 0.00 62 1003.0
20260505223549 88 158 4.0 9.0 0.00 0.00 0.00 61 1002.9
20260505222549 89 225 2.0 5.0 0.00 0.00 0.00 58 1002.5
20260505221609 89 135 4.0 8.0 0.00 0.00 0.00 58 1002.7
20260505220549 89 180 5.0 10.0 0.00 0.00 0.00 57 1002.8
20260505215549 89 225 4.0 8.0 0.00 0.00 0.00 56 1002.8
20260505214549 89 203 5.0 10.0 0.00 0.00 0.00 56 1002.8
20260505213549 89 225 6.0 12.0 0.00 0.00 0.00 58 1003.1
20260505212549 89 225 5.0 11.0 0.00 0.00 0.00 57 1003.0
20260505211609 89 203 5.0 11.0 0.00 0.00 0.00 57 1003.3
20260505210549 89 225 4.0 11.0 0.00 0.00 0.00 56 1003.1
20260505205549 90 225 4.0 9.0 0.00 0.00 0.00 57 1003.4
20260505204549 89 225 5.0 9.0 0.00 0.00 0.00 58 1003.4
20260505203549 89 225 5.0 13.0 0.00 0.00 0.00 60 1003.7
20260505202549 89 225 5.0 12.0 0.00 0.00 0.00 59 1003.7
20260505201549 89 225 6.0 11.0 0.00 0.00 0.00 61 1003.8
20260505200549 88 225 3.0 9.0 0.00 0.00 0.00 61 1003.8
20260505195549 87 203 5.0 12.0 0.00 0.00 0.00 61 1003.8
20260505194549 87 203 5.0 15.0 0.00 0.00 0.00 65 1003.9
20260505193549 86 248 5.0 10.0 0.00 0.00 0.00 65 1004.0
20260505192549 85 180 6.0 10.0 0.00 0.00 0.00 67 1003.9
20260505191609 85 180 6.0 13.0 0.00 0.00 0.00 67 1003.9
20260505190548 84 180 6.0 14.0 0.00 0.00 0.00 69 1004.1
20260505185549 83 225 6.0 13.0 0.00 0.00 0.00 70 1004.0
20260505184549 83 180 5.0 11.0 0.00 0.00 0.00 69 1004.1
20260505183608 83 225 6.0 13.0 0.00 0.00 0.00 69 1004.3
20260505182548 82 203 6.0 19.0 0.00 0.00 0.00 70 1004.2
20260505181549 82 203 6.0 13.0 0.00 0.00 0.00 70 1004.3
20260505180548 82 225 5.0 12.0 0.00 0.00 0.00 70 1004.3
20260505175549 82 180 7.0 16.0 0.00 0.00 0.00 70 1004.2
20260505174548 82 180 7.0 16.0 0.00 0.00 0.00 70 1004.4
20260505173549 82 225 6.0 12.0 0.00 0.00 0.00 69 1004.6
20260505172548 82 203 5.0 10.0 0.00 0.00 0.00 70 1004.5
20260505171549 81 203 7.0 12.0 0.00 0.00 0.00 71 1004.4
20260505170548 81 225 6.0 17.0 0.00 0.00 0.00 72 1004.6
20260505165549 80 203 7.0 18.0 0.00 0.00 0.00 73 1004.4
20260505164549 80 225 5.0 11.0 0.00 0.00 0.00 71 1004.3
20260505163548 80 225 7.0 11.0 0.00 0.00 0.00 72 1004.5
20260505162548 80 203 8.0 14.0 0.00 0.00 0.00 73 1004.5
20260505161548 80 248 7.0 14.0 0.00 0.00 0.00 73 1004.3
20260505160548 79 203 8.0 22.0 0.00 0.00 0.00 72 1004.1
20260505152549 78 225 9.0 17.0 0.00 0.00 0.00 75 1004.2
20260505151548 77 225 7.0 16.0 0.00 0.00 0.00 76 1004.3
20260505150548 77 203 7.0 17.0 0.00 0.00 0.00 77 1004.3
20260505140608 73 225 5.0 13.0 0.00 0.00 0.00 82 1004.0
20260505124548 72 203 5.0 10.0 0.00 0.00 0.00 83 1004.0
20260505123548 72 158 5.0 9.0 0.00 0.00 0.00 84 1003.7
20260505122548 71 180 5.0 11.0 0.00 0.00 0.00 83 1003.4
20260505121548 71 203 6.0 16.0 0.00 0.00 0.00 83 1003.5
20260505120548 71 180 6.0 15.0 0.00 0.00 0.00 83 1003.4
20260505115608 71 180 6.0 16.0 0.00 0.00 0.00 83 1003.4
20260505114548 71 180 5.0 12.0 0.00 0.00 0.00 83 1003.3
20260505113548 71 203 7.0 13.0 0.00 0.00 0.00 83 1003.2
20260505112548 71 180 6.0 14.0 0.00 0.00 0.00 83 1003.2
20260505111548 71 158 6.0 16.0 0.00 0.00 0.00 83 1003.1
20260505110548 71 180 6.0 13.0 0.00 0.00 0.00 83 1003.2
20260505101548 72 180 5.0 14.0 0.00 0.00 0.00 82 1003.4
20260505100608 72 180 8.0 17.0 0.00 0.00 0.00 82 1003.5
20260505095608 72 180 6.0 12.0 0.00 0.00 0.00 82 1003.4
20260505094548 72 203 8.0 16.0 0.00 0.00 0.00 82 1003.5
20260505093548 72 203 6.0 17.0 0.00 0.00 0.00 82 1003.6
20260505092548 72 203 7.0 18.0 0.00 0.00 0.00 82 1003.7
20260505091548 72 180 5.0 13.0 0.00 0.00 0.00 83 1003.8
20260505090608 71 180 7.0 17.0 0.00 0.00 0.00 83 1003.9
20260505085548 71 203 5.0 13.0 0.00 0.00 0.00 83 1003.8
20260505084548 71 180 6.0 14.0 0.00 0.00 0.00 83 1003.7
20260505083548 71 180 7.0 15.0 0.00 0.00 0.00 83 1003.7
20260505082548 71 203 6.0 13.0 0.00 0.00 0.00 83 1003.8
20260505081548 71 180 7.0 17.0 0.00 0.00 0.00 82 1003.9
20260505080548 71 180 7.0 16.0 0.00 0.00 0.00 82 1003.9
20260505075548 71 180 7.0 16.0 0.00 0.00 0.00 82 1004.1
20260505074548 71 180 6.0 14.0 0.00 0.00 0.00 81 1004.3
20260505073608 72 158 6.0 15.0 0.00 0.00 0.00 81 1004.5
20260505072548 72 180 6.0 17.0 0.00 0.00 0.00 80 1004.5
20260505071548 72 180 6.0 15.0 0.00 0.00 0.00 80 1004.8
20260505070608 72 180 7.0 14.0 0.00 0.00 0.00 80 1004.8